"Pseudo-MPEC" for P10Mi1o

Created 2019 Feb 15 22:18:09 UT using Find_Orb

Click here for an explanation of pseudo-MPECs

 
 Astrometry: 
     P10Mi1o  C2019 02 09AW\AstrometryLrwy!VJGW1[*Zredacted;q!`ktSdInSe50!a\yF51
     P10Mi1o  C2019 02 09:]UVclick-V0gkH!JaZo[;HdpS)here+=+Fy^`\miIL-jq0k44-nF51
     P10Mi1o  C2019 02 09)B/QBforM!O1,l,kTlM!bp$4$n+hexplanation9?Fh+CQ6e%7;jF51

Station data:
(F51) Pan-STARRS 1, Haleakala  (N20.707235 W156.255910)  US/Hawaii.
   Observers N. Primak, A. Schultz, S. Watters, J. Thiel, T. Goggia. Measurer
   PS1 Science Consortium. 1.8-m Ritchey-Chrétien + CCD.

Orbital elements:  P10Mi1o
   Perihelion 2019 Jan 24.952342 +/- 32.9 TT = 22:51:22 (JD 2458508.452342)
Epoch 2019 Feb  9.0 TT = JDT 2458523.5   Earth MOID: 0.0235   Ma: 0.0988
M  11.98683532 +/- 21               (J2000 ecliptic)          AutoNEOCP
n   0.79659142 +/- 0.408            Peri.  359.67134 +/- 70
a   1.15251246 +/- 0.393            Node   123.88440 +/- 56
e   0.1254235 +/- 0.247             Incl.    3.36497 +/- 10
P   1.24/451.92d           H 27.1   G  0.15   U 12.1  SR
q 1.00796026 +/- 0.208    Q 1.29706466 +/- 40.3
From 3 observations 2019 Feb. 9 (38.9 min); mean residual 0".18
Residuals in arcseconds: 
190209 F51  .10+  .15+    190209 F51  .20-  .31-    190209 F51  .10+  .15+    

Ephemerides (geocentric):
Date (UTC) HH   RA              Dec         delta   r     elong  mag " sig PA
---- -- -- --  -------------   -----------  ------ ------ -----  --- ---- ---
2019 02 15 22  09 34 44.180   +53 26 43.80  .03786 1.0166 139.0 21.6  33d  44
2019 02 15 23  09 35 07.832   +53 27 15.09  .03790 1.0167 138.9 21.6  33d  44
2019 02 16 00  09 35 31.445   +53 27 45.87  .03795 1.0167 138.9 21.6  33d  44
2019 02 16 01  09 35 55.019   +53 28 16.15  .03799 1.0167 138.9 21.6  33d  44
2019 02 16 02  09 36 18.555   +53 28 45.92  .03803 1.0167 138.9 21.7  33d  44
2019 02 16 03  09 36 42.051   +53 29 15.19  .03807 1.0168 138.9 21.7  33d  44
2019 02 16 04  09 37 05.509   +53 29 43.96  .03811 1.0168 138.9 21.7  33d  44
2019 02 16 05  09 37 28.928   +53 30 12.23  .03815 1.0168 138.8 21.7  33d  44
2019 02 16 06  09 37 52.308   +53 30 40.00  .03820 1.0169 138.8 21.7  33d  44
2019 02 16 07  09 38 15.648   +53 31 07.28  .03824 1.0169 138.8 21.7  33d  44
2019 02 16 08  09 38 38.949   +53 31 34.07  .03828 1.0169 138.8 21.7  33d  44
2019 02 16 09  09 39 02.211   +53 32 00.36  .03832 1.0170 138.8 21.7  33d  44
2019 02 16 10  09 39 25.433   +53 32 26.17  .03836 1.0170 138.8 21.7  34d  44
2019 02 16 11  09 39 48.615   +53 32 51.50  .03841 1.0170 138.7 21.7  34d  44
2019 02 16 12  09 40 11.757   +53 33 16.34  .03845 1.0171 138.7 21.7  34d  44
2019 02 16 13  09 40 34.859   +53 33 40.69  .03849 1.0171 138.7 21.7  34d  44
2019 02 16 14  09 40 57.921   +53 34 04.57  .03853 1.0171 138.7 21.7  34d  44
2019 02 16 15  09 41 20.943   +53 34 27.97  .03857 1.0172 138.7 21.7  34d  44
2019 02 16 16  09 41 43.924   +53 34 50.90  .03862 1.0172 138.6 21.7  34d  44
2019 02 16 17  09 42 06.866   +53 35 13.35  .03866 1.0172 138.6 21.7  34d  44
2019 02 16 18  09 42 29.766   +53 35 35.33  .03870 1.0173 138.6 21.7  34d  44
2019 02 16 19  09 42 52.626   +53 35 56.84  .03874 1.0173 138.6 21.7  34d  44
2019 02 16 20  09 43 15.445   +53 36 17.89  .03879 1.0173 138.6 21.7  34d  44
2019 02 16 21  09 43 38.223   +53 36 38.47  .03883 1.0174 138.6 21.7  34d  44
2019 02 16 22  09 44 00.961   +53 36 58.59  .03887 1.0174 138.5 21.7  34d  44
2019 02 16 23  09 44 23.657   +53 37 18.24  .03891 1.0174 138.5 21.7  34d  44
2019 02 17 00  09 44 46.312   +53 37 37.44  .03896 1.0175 138.5 21.7  34d  44
2019 02 17 01  09 45 08.926   +53 37 56.18  .03900 1.0175 138.5 21.7  34d  44
2019 02 17 02  09 45 31.498   +53 38 14.46  .03904 1.0175 138.5 21.7  34d  44
2019 02 17 03  09 45 54.030   +53 38 32.30  .03908 1.0176 138.5 21.7  35d  44
2019 02 17 04  09 46 16.519   +53 38 49.68  .03913 1.0176 138.4 21.7  35d  44
2019 02 17 05  09 46 38.967   +53 39 06.61  .03917 1.0176 138.4 21.7  35d  44
2019 02 17 06  09 47 01.373   +53 39 23.10  .03921 1.0177 138.4 21.7  35d  44
2019 02 17 07  09 47 23.738   +53 39 39.14  .03926 1.0177 138.4 21.7  35d  44
2019 02 17 08  09 47 46.060   +53 39 54.74  .03930 1.0177 138.4 21.7  35d  44
2019 02 17 09  09 48 08.341   +53 40 09.90  .03934 1.0178 138.4 21.7  35d  44
2019 02 17 10  09 48 30.580   +53 40 24.62  .03939 1.0178 138.4 21.7  35d  44
2019 02 17 11  09 48 52.776   +53 40 38.90  .03943 1.0179 138.3 21.7  35d  44
2019 02 17 12  09 49 14.930   +53 40 52.75  .03947 1.0179 138.3 21.7  35d  44
2019 02 17 13  09 49 37.042   +53 41 06.17  .03952 1.0179 138.3 21.8  35d  44
2019 02 17 14  09 49 59.112   +53 41 19.15  .03956 1.0180 138.3 21.8  35d  44
2019 02 17 15  09 50 21.139   +53 41 31.71  .03960 1.0180 138.3 21.8  35d  44
2019 02 17 16  09 50 43.123   +53 41 43.84  .03965 1.0180 138.3 21.8  35d  44
2019 02 17 17  09 51 05.065   +53 41 55.54  .03969 1.0181 138.2 21.8  35d  44
2019 02 17 18  09 51 26.964   +53 42 06.83  .03973 1.0181 138.2 21.8  35d  44
2019 02 17 19  09 51 48.821   +53 42 17.69  .03978 1.0181 138.2 21.8  35d  44
2019 02 17 20  09 52 10.635   +53 42 28.13  .03982 1.0182 138.2 21.8  35d  44
2019 02 17 21  09 52 32.406   +53 42 38.16  .03986 1.0182 138.2 21.8  36d  44